Weather History for Homestead AFB, FL

Change the Weather History Date:

Wednesday, September 4, 2013

  Actual Average Record
Temperature  
Mean Temperature 83 °F -  
Max Temperature 88 °F 89 °F 94 °F (1944)
Min Temperature 78 °F 72 °F 67 °F (1939)
Cooling Degree Days 18    
Growing Degree Days 33 (Base 50)    
Moisture  
Dew Point 77 °F    
Average Humidity 81    
Maximum Humidity 94    
Minimum Humidity 69    
Precipitation  
Precipitation 0.05 in - - ()
Sea Level Pressure  
Sea Level Pressure 30.03 in    
Wind  
Wind Speed 6 mph (ESE)    
Max Wind Speed 16 mph    
Max Gust Speed 29 mph    
Visibility 10 miles    
Events Rain , Thunderstorm    
Averages and records for this station are not official NWS values.
T = Trace of Precipitation, MM = Missing Value Source: NWS Daily Summary

Daily Weather History Graph

Daily Weather History Graph

Search for Another Location

Airport:

Trip Planner

Search our weather history database for the weather conditions in past years. The results will help you decide how hot, cold, wet, or windy it might be!

Date:

Astronomy

Sep. 04, 2013 Rise Set
Actual Time 7:03 AM EDT 7:37 PM EDT
Civil Twilight 6:40 AM EDT 8:00 PM EDT
Nautical Twilight 6:12 AM EDT 8:27 PM EDT
Astronomical Twilight 5:45 AM EDT 8:55 PM EDT
Moon 6:13 AM EDT (9/4) 6:59 PM EDT (9/4)
Length of Visible Light 13h 20m
Length of Day
12h 33m
Waning Crescent, 1% of the Moon is Illuminated
Sep 4
Waning Crescent
Sep 5
New
Sep 12
First Quarter
Sep 19
Full
Sep 26
Last Quarter

Hourly Weather History & Observations

Time (EDT) Temp. Heat Index Dew Point Humidity Pressure Visibility Wind Dir Wind Speed Gust Speed Precip Events Conditions
12:58 AM 80.8 °F 86.7 °F 75.6 °F 84% 30.01 in 10.0 mi ESE 4.6 mph - N/A   Clear
1:58 AM 80.6 °F 86.6 °F 75.9 °F 86% 29.98 in 10.0 mi East 4.6 mph - N/A   Clear
2:58 AM 80.2 °F 86.0 °F 76.3 °F 88% 29.96 in 10.0 mi East 5.8 mph - N/A   Clear
3:58 AM 81.5 °F 88.5 °F 76.3 °F 84% 29.97 in 10.0 mi East 4.6 mph - N/A   Clear
4:58 AM 81.5 °F 88.7 °F 76.6 °F 85% 29.96 in 10.0 mi East 5.8 mph - N/A   Partly Cloudy
5:58 AM 81.9 °F 88.9 °F 75.7 °F 82% 29.98 in 10.0 mi East 4.6 mph - N/A   Clear
6:58 AM 81.0 °F 87.5 °F 76.3 °F 86% 30.00 in 10.0 mi East 3.5 mph - N/A   Clear
7:58 AM 81.7 °F 89.0 °F 76.5 °F 84% 30.02 in 10.0 mi ESE 4.6 mph - N/A   Clear
7:59 AM 82.4 °F 90.9 °F 77.0 °F 84% 30.01 in 10.0 mi East 4.6 mph - N/A Rain Light Rain
8:13 AM 82.4 °F 90.9 °F 77.0 °F 84% 30.02 in 10.0 mi SE 4.6 mph - N/A   Partly Cloudy
8:58 AM 83.5 °F 92.6 °F 76.8 °F 80% 30.04 in 10.0 mi ESE 4.6 mph - 0.00 in   Clear
9:22 AM 84.2 °F 94.1 °F 77.0 °F 79% 30.03 in 10.0 mi ESE 5.8 mph - N/A Thunderstorm Thunderstorm
9:37 AM 84.2 °F 94.1 °F 77.0 °F 79% 30.04 in 10.0 mi SSE 10.4 mph - N/A   Scattered Clouds
9:48 AM 80.6 °F 86.2 °F 75.2 °F 84% 30.04 in 10.0 mi South 6.9 mph - N/A Rain Light Rain
9:58 AM 79.7 °F - 75.9 °F 88% 30.06 in 10.0 mi SSE 4.6 mph - 0.00 in   Light Drizzle
9:59 AM 78.8 °F - 77.0 °F 94% 30.05 in 10.0 mi South 3.5 mph - N/A   Partly Cloudy
10:14 AM 80.6 °F 86.2 °F 75.2 °F 84% 30.06 in 10.0 mi ESE 2.3 mph - N/A Rain Light Rain
10:24 AM 82.4 °F 90.9 °F 77.0 °F 84% 30.06 in 10.0 mi SSW 4.6 mph - N/A   Clear
10:58 AM 85.3 °F 96.7 °F 77.5 °F 78% 30.07 in 10.0 mi SSE 3.5 mph - 0.00 in   Clear
11:13 AM 86.0 °F 99.3 °F 78.8 °F 79% 30.07 in 6.0 mi East 12.7 mph - N/A Rain Light Rain
11:26 AM 82.4 °F 92.4 °F 78.8 °F 89% 30.06 in 10.0 mi East 8.1 mph - N/A   Partly Cloudy
11:58 AM 86.4 °F 99.3 °F 78.3 °F 77% 30.07 in 10.0 mi ESE 10.4 mph - 0.05 in   Partly Cloudy
12:01 PM 86.0 °F 99.3 °F 78.8 °F 79% 30.06 in 10.0 mi South 16.1 mph 28.8 mph N/A   Scattered Clouds
12:02 PM 86.0 °F 96.9 °F 77.0 °F 74% 30.06 in 9.0 mi South 10.4 mph 28.8 mph N/A Rain Light Rain
12:15 PM 82.4 °F 88.2 °F 73.4 °F 74% 30.06 in 10.0 mi Variable 2.3 mph - N/A   Partly Cloudy
12:58 PM 86.4 °F 97.8 °F 77.0 °F 74% 30.05 in 10.0 mi ESE 11.5 mph - 0.00 in   Partly Cloudy
1:58 PM 88.2 °F 100.1 °F 76.8 °F 69% 30.04 in 10.0 mi ESE 9.2 mph - N/A   Clear
2:58 PM 88.3 °F 100.6 °F 77.2 °F 69% 30.03 in 10.0 mi East 10.4 mph - N/A   Partly Cloudy
3:58 PM 87.4 °F 99.2 °F 77.2 °F 71% 30.02 in 10.0 mi East 9.2 mph - N/A   Partly Cloudy
4:58 PM 86.0 °F 97.8 °F 77.5 °F 76% 30.02 in 10.0 mi ENE 9.2 mph - N/A   Clear
5:58 PM 85.3 °F 95.4 °F 76.5 °F 75% 30.02 in 10.0 mi ENE 5.8 mph - N/A   Clear
6:58 PM 84.2 °F 94.5 °F 77.5 °F 80% 30.02 in 10.0 mi ENE 5.8 mph - N/A   Clear
7:58 PM 83.1 °F 92.6 °F 77.4 °F 83% 30.02 in 10.0 mi ENE 8.1 mph - N/A   Partly Cloudy
8:58 PM 82.9 °F 91.5 °F 76.6 °F 81% 30.05 in 10.0 mi ENE 5.8 mph - N/A   Partly Cloudy
9:58 PM 82.9 °F 91.8 °F 77.0 °F 82% 30.05 in 10.0 mi ENE 10.4 mph - N/A   Clear
10:58 PM 83.5 °F 93.3 °F 77.4 °F 82% 30.07 in 10.0 mi NE 16.1 mph - N/A   Partly Cloudy
11:39 PM 82.4 °F 90.9 °F 77.0 °F 84% 30.05 in 10.0 mi East 11.5 mph - N/A   Scattered Clouds
11:42 PM 82.4 °F 90.9 °F 77.0 °F 84% 30.06 in 10.0 mi East 10.4 mph - N/A Thunderstorm Scattered Clouds
11:46 PM 82.4 °F 90.9 °F 77.0 °F 84% 30.06 in 10.0 mi East 10.4 mph - N/A Thunderstorm Thunderstorm
11:54 PM 82.4 °F 90.9 °F 77.0 °F 84% 30.05 in 10.0 mi East 10.4 mph - N/A   Partly Cloudy
11:58 PM 82.4 °F 90.9 °F 77.0 °F 84% 30.05 in 10.0 mi East 10.4 mph - N/A Thunderstorm Partly Cloudy